Location: Chmeln�
(49.6483°N, 14.9871°E)
Time: 07:54:20
(UTC+00:00)

Cosmos 1689 Rocket - Pass Details

Date: 18 September 2020
Orbit: 362 x 378 km, 97.5° (Epoch: 27 October)

Event Time Altitude Azimuth Distance (km) Brightness Sun altitude
Rises 17:32:09 0° 6° (N) 2,280 6.0 -5.0°
Reaches altitude 10° 17:34:13 10° 357° (N) 1,419 5.1 -5.4°
Maximum altitude 17:37:01 35° 290° (WNW) 642 4.1 -5.8°
Drops below altitude 10° 17:39:47 10° 222° (SW) 1,402 5.4 -6.2°
Sets 17:41:48 0° 213° (SSW) 2,246 6.3 -6.6°
